TimeCST,TemperatureF,Dew PointF,Humidity,Sea Level PressureIn,VisibilityMPH,Wind Direction,Wind SpeedMPH,Gust SpeedMPH,PrecipitationIn,Events,Conditions,WindDirDegrees,DateUTC
12:53 AM,55.9,53.1,90,29.77,6.0,SSW,13.8,26.5,0.01,,Overcast,200,2013-11-06 06:53:00
1:53 AM,57.0,54.0,89,29.76,6.0,SSW,12.7,-,0.03,Rain,Light Rain,210,2013-11-06 07:53:00
2:45 AM,55.9,54.0,93,29.73,7.0,West,4.6,-,0.09,Rain,Light Rain,260,2013-11-06 08:45:00
2:53 AM,53.1,51.1,93,29.75,8.0,NW,13.8,19.6,0.09,Rain,Light Rain,310,2013-11-06 08:53:00
3:25 AM,46.9,44.1,90,29.78,4.0,NW,9.2,-,0.02,Rain,Light Rain,310,2013-11-06 09:25:00
3:53 AM,44.1,41.0,89,29.80,6.0,NNW,8.1,20.7,0.03,Rain,Light Rain,330,2013-11-06 09:53:00
4:53 AM,42.1,39.0,89,29.82,2.5,NNW,8.1,-,0.04,Rain,Heavy Rain,340,2013-11-06 10:53:00
5:02 AM,42.1,37.9,85,29.81,3.0,North,8.1,-,0.02,Rain,Light Rain,350,2013-11-06 11:02:00
5:09 AM,41.0,37.9,89,29.81,4.0,North,10.4,-,0.03,Rain,Heavy Rain,350,2013-11-06 11:09:00
5:53 AM,39.9,37.0,89,29.84,4.0,North,5.8,-,0.08,Rain,Rain,360,2013-11-06 11:53:00
6:53 AM,39.9,35.1,83,29.86,10.0,North,11.5,-,0.01,,Overcast,350,2013-11-06 12:53:00
7:53 AM,39.0,34.0,82,29.91,10.0,North,9.2,25.3,N/A,,Overcast,350,2013-11-06 13:53:00
8:07 AM,39.0,34.0,82,29.91,10.0,North,5.8,23.0,N/A,,Overcast,350,2013-11-06 14:07:00
8:53 AM,39.0,34.0,82,29.96,10.0,NNW,10.4,-,N/A,,Overcast,330,2013-11-06 14:53:00
9:06 AM,39.0,34.0,82,29.94,10.0,NNW,10.4,19.6,N/A,,Overcast,340,2013-11-06 15:06:00
9:18 AM,39.9,34.0,79,29.94,10.0,NNW,12.7,19.6,N/A,,Overcast,340,2013-11-06 15:18:00
9:53 AM,39.9,35.1,83,29.97,10.0,Variable,6.9,-,N/A,,Overcast,0,2013-11-06 15:53:00
10:53 AM,43.0,35.1,74,30.00,10.0,NW,6.9,-,N/A,,Overcast,310,2013-11-06 16:53:00
11:28 AM,44.1,33.1,65,29.99,10.0,NW,11.5,-,N/A,,Overcast,320,2013-11-06 17:28:00
11:53 AM,45.0,33.1,63,30.00,10.0,North,9.2,18.4,N/A,,Overcast,360,2013-11-06 17:53:00
12:53 PM,46.0,30.9,56,30.01,10.0,WNW,13.8,-,N/A,,Partly Cloudy,300,2013-11-06 18:53:00
1:53 PM,48.0,28.9,48,30.02,10.0,NW,11.5,16.1,N/A,,Partly Cloudy,310,2013-11-06 19:53:00
2:53 PM,46.0,21.0,37,30.06,10.0,WNW,13.8,24.2,N/A,,Clear,300,2013-11-06 20:53:00
3:53 PM,45.0,18.0,34,30.09,10.0,NW,16.1,23.0,N/A,,Clear,310,2013-11-06 21:53:00
4:53 PM,42.1,19.0,40,30.12,10.0,NW,10.4,17.3,N/A,,Clear,310,2013-11-06 22:53:00
5:53 PM,39.0,21.9,50,30.15,10.0,WSW,4.6,-,N/A,,Clear,250,2013-11-06 23:53:00
6:53 PM,39.0,21.9,50,30.18,10.0,West,4.6,-,N/A,,Clear,260,2013-11-07 00:53:00
7:53 PM,35.1,21.9,59,30.19,10.0,WSW,4.6,-,N/A,,Clear,240,2013-11-07 01:53:00
8:53 PM,36.0,24.1,62,30.20,10.0,West,6.9,-,N/A,,Clear,270,2013-11-07 02:53:00
9:53 PM,35.1,25.0,67,30.22,10.0,WNW,3.5,-,N/A,,Clear,290,2013-11-07 03:53:00
10:53 PM,30.0,24.1,79,30.23,10.0,SSW,6.9,-,N/A,,Clear,210,2013-11-07 04:53:00
11:53 PM,30.9,24.1,76,30.23,10.0,SSW,6.9,-,N/A,,Clear,210,2013-11-07 05:53:00